Location: Newark
(23.1300°N, 73.6109°E)
Time: 23:07:27
(UTC+00:00)

ISS - Visible Passes

Search period start: 27 July 2021 00:00
Search period end: 06 August 2021 00:00
Orbit: 419 x 421 km, 51.6° (Epoch: 27 July)

Date Brightness Start Highest point End Pass type
(mag) Time Alt. Az. Time Alt. Az. Time Alt. Az.
01 Aug -0.7 15:53:20 10° N 15:53:29 11° N 15:53:29 11° N visible
03 Aug -1.2 15:54:34 10° NNW 15:55:48 21° NNW 15:55:48 21° NNW visible
04 Aug -2.5 15:07:40 10° NNW 15:10:36 29° NE 15:10:36 29° NE visible
05 Aug -1.7 14:21:12 10° N 14:23:24 16° NE 14:25:30 10° E visible
05 Aug -1.0 15:57:20 10° WNW 15:58:30 17° W 15:58:30 17° W visible
